{"data":{"norad_id":47856,"epoch":"2026-05-25T04:38:23.637696Z","epoch_age_seconds":48479,"freshness":"FRESH","line1":"1 47856U 21020C   26145.19332914 -.00000105  00000+0 -22873-4 0  9998","line2":"2 47856  63.4065 317.8728 0172705   0.5318 359.5861 13.45446436255314","mean_motion":13.45446436,"eccentricity":0.0172705,"inclination_deg":63.4065,"raan_deg":317.8728,"arg_perigee_deg":0.5318,"mean_anomaly_deg":359.5861,"bstar":-2.2873e-5,"rev_number":25531,"period_min":107.02767211463,"perigee_km":960.09705087983,"apogee_km":1218.0214770332,"semimajor_km":7467.1962639565,"source":"CELESTRAK","updated_at":"2026-05-25T13:37:56.596542Z"}}